owner,sensor,date,latitude,longitude,vertical_datum,direction_of_sea_water_velocity,sea_water_speed,upward_sea_water_velocity,qcFlag 
TABS,ioos:station:wmo:42048:1,2004-03-01T00:30:00Z,27.9396,-96.8429,2.0,246.9560352,24.75529236,-99999.0,'11111222,11111222,99999999' 
TABS,ioos:station:wmo:42048:1,2004-03-01T01:00:00Z,27.9396,-96.8429,2.0,234.0132509,28.79542325,-99999.0,'11111222,11111222,99999999' 
TABS,ioos:station:wmo:42048:1,2004-03-01T01:30:00Z,27.9396,-96.8429,2.0,229.5062807,28.79756934,-99999.0,'11111222,11111222,99999999' 
TABS,ioos:station:wmo:42048:1,2004-03-01T02:00:00Z,27.9396,-96.8429,2.0,228.7410546,28.17461269,-99999.0,'11111222,11111222,99999999' 
TABS,ioos:station:wmo:42048:1,2004-03-01T02:30:00Z,27.9396,-96.8429,2.0,233.2827274,28.46810145,-99999.0,'11111222,11111222,99999999' 
TABS,ioos:station:wmo:42048:1,2004-03-01T03:00:00Z,27.9396,-96.8429,2.0,229.4869352,23.86020955,-99999.0,'11111222,11111222,99999999' 
TABS,ioos:station:wmo:42048:1,2004-03-01T03:30:00Z,27.9396,-96.8429,2.0,232.5627086,22.02707879,-99999.0,'11111222,11111222,99999999' 
TABS,ioos:station:wmo:42048:1,2004-03-01T04:00:00Z,27.9396,-96.8429,2.0,236.3030646,24.35133877,-99999.0,'11111222,11111222,99999999' 
TABS,ioos:station:wmo:42048:1,2004-03-01T04:30:00Z,27.9396,-96.8429,2.0,227.3338125,26.04313729,-99999.0,'11111222,11111222,99999999' 
TABS,ioos:station:wmo:42048:1,2004-03-01T05:00:00Z,27.9396,-96.8429,2.0,236.6519317,26.9228546,-99999.0,'11111222,11111222,99999999' 
TABS,ioos:station:wmo:42048:1,2004-03-01T05:30:00Z,27.9396,-96.8429,2.0,225.4747109,26.43963124,-99999.0,'11111222,11111222,99999999' 
TABS,ioos:station:wmo:42048:1,2004-03-01T06:00:00Z,27.9396,-96.8429,2.0,228.3310916,25.79642223,-99999.0,'11111222,11111222,99999999' 
TABS,ioos:station:wmo:42048:1,2004-03-01T06:30:00Z,27.9396,-96.8429,2.0,230.2401841,25.47038476,-99999.0,'11111222,11111222,99999999' 
TABS,ioos:station:wmo:42048:1,2004-03-01T07:00:00Z,27.9396,-96.8429,2.0,232.4324289,25.79991085,-99999.0,'11111222,11111222,99999999' 
TABS,ioos:station:wmo:42048:1,2004-03-01T07:30:00Z,27.9396,-96.8429,2.0,229.8056712,27.00743972,-99999.0,'11111222,11111222,99999999' 
TABS,ioos:station:wmo:42048:1,2004-03-01T08:00:00Z,27.9396,-96.8429,2.0,231.5726639,24.21494167,-99999.0,'11111222,11111222,99999999' 
TABS,ioos:station:wmo:42048:1,2004-03-01T08:30:00Z,27.9396,-96.8429,2.0,229.5806125,27.62297956,-99999.0,'11111222,11111222,99999999' 
TABS,ioos:station:wmo:42048:1,2004-03-01T09:00:00Z,27.9396,-96.8429,2.0,230.1529896,26.76611664,-99999.0,'11111222,11111222,99999999' 
TABS,ioos:station:wmo:42048:1,2004-03-01T09:30:00Z,27.9396,-96.8429,2.0,228.4057557,26.42175619,-99999.0,'11111222,11111222,99999999' 
TABS,ioos:station:wmo:42048:1,2004-03-01T10:00:00Z,27.9396,-96.8429,2.0,221.6332315,25.52818051,-99999.0,'11111222,11111222,99999999' 
TABS,ioos:station:wmo:42048:1,2004-03-01T10:30:00Z,27.9396,-96.8429,2.0,224.9823587,23.38402232,-99999.0,'11111222,11111222,99999999' 
TABS,ioos:station:wmo:42048:1,2004-03-01T11:00:00Z,27.9396,-96.8429,2.0,223.1499296,24.31593099,-99999.0,'11111222,11111222,99999999' 
TABS,ioos:station:wmo:42048:1,2004-03-01T11:30:00Z,27.9396,-96.8429,2.0,223.3175527,23.36580621,-99999.0,'11111222,11111222,99999999' 
TABS,ioos:station:wmo:42048:1,2004-03-01T12:00:00Z,27.9396,-96.8429,2.0,222.3994127,24.15842917,-99999.0,'11111222,11111222,99999999' 
TABS,ioos:station:wmo:42048:1,2004-03-01T12:30:00Z,27.9396,-96.8429,2.0,224.9996843,23.54665581,-99999.0,'11111222,11111222,99999999' 
TABS,ioos:station:wmo:42048:1,2004-03-01T13:00:00Z,27.9396,-96.8429,2.0,232.2208136,21.43269698,-99999.0,'11111222,11111222,99999999' 
TABS,ioos:station:wmo:42048:1,2004-03-01T13:30:00Z,27.9396,-96.8429,2.0,214.2522589,20.05892569,-99999.0,'11111222,11111222,99999999' 
TABS,ioos:station:wmo:42048:1,2004-03-01T14:00:00Z,27.9396,-96.8429,2.0,218.3058351,20.74651778,-99999.0,'11111222,11111222,99999999' 
TABS,ioos:station:wmo:42048:1,2004-03-01T14:30:00Z,27.9396,-96.8429,2.0,222.9504319,18.78569935,-99999.0,'11111222,11111222,99999999' 
TABS,ioos:station:wmo:42048:1,2004-03-01T15:00:00Z,27.9396,-96.8429,2.0,216.7419035,19.74204903,-99999.0,'11111222,11111222,99999999' 
TABS,ioos:station:wmo:42048:1,2004-03-01T15:30:00Z,27.9396,-96.8429,2.0,216.4366607,17.99851383,-99999.0,'11111222,11111222,99999999' 
TABS,ioos:station:wmo:42048:1,2004-03-01T16:00:00Z,27.9396,-96.8429,2.0,223.1060998,16.47751498,-99999.0,'11111222,11111222,99999999' 
TABS,ioos:station:wmo:42048:1,2004-03-01T16:30:00Z,27.9396,-96.8429,2.0,213.6630046,17.80587824,-99999.0,'11111222,11111222,99999999' 
TABS,ioos:station:wmo:42048:1,2004-03-01T17:30:00Z,27.9396,-96.8429,2.0,206.3613028,15.11144268,-99999.0,'11111222,11111222,99999999' 
TABS,ioos:station:wmo:42048:1,2004-03-01T18:00:00Z,27.9396,-96.8429,2.0,214.0625792,13.64036656,-99999.0,'11111222,11111222,99999999' 
TABS,ioos:station:wmo:42048:1,2004-03-01T18:30:00Z,27.9396,-96.8429,2.0,216.5172507,16.58631364,-99999.0,'11111222,11111222,99999999' 
TABS,ioos:station:wmo:42048:1,2004-03-01T19:30:00Z,27.9396,-96.8429,2.0,200.6774695,27.55505943,-99999.0,'11111222,11111222,99999999' 
TABS,ioos:station:wmo:42048:1,2004-03-01T20:00:00Z,27.9396,-96.8429,2.0,202.8401753,24.5771052,-99999.0,'11111222,11111222,99999999' 
TABS,ioos:station:wmo:42048:1,2004-03-01T20:30:00Z,27.9396,-96.8429,2.0,209.1785931,26.86971529,-99999.0,'11111222,11111222,99999999' 
TABS,ioos:station:wmo:42048:1,2004-03-01T21:00:00Z,27.9396,-96.8429,2.0,206.6046226,32.15466529,-99999.0,'11111222,11111222,99999999' 
TABS,ioos:station:wmo:42048:1,2004-03-01T21:30:00Z,27.9396,-96.8429,2.0,209.3691681,26.69036718,-99999.0,'11111222,11111222,99999999' 
TABS,ioos:station:wmo:42048:1,2004-03-01T22:00:00Z,27.9396,-96.8429,2.0,207.8969953,30.19955298,-99999.0,'11111222,11111222,99999999' 
TABS,ioos:station:wmo:42048:1,2004-03-01T22:30:00Z,27.9396,-96.8429,2.0,213.1541162,29.07310785,-99999.0,'11111222,11111222,99999999' 
TABS,ioos:station:wmo:42048:1,2004-03-01T23:30:00Z,27.9396,-96.8429,2.0,214.6432271,26.66813079,-99999.0,'11111222,11111222,99999999' 
TABS,ioos:station:wmo:42048:1,2004-03-02T00:00:00Z,27.9396,-96.8429,2.0,216.4206389,26.54481494,-99999.0,'11111222,11111222,99999999' 
TABS,ioos:station:wmo:42048:1,2004-03-02T01:00:00Z,27.9396,-96.8429,2.0,221.827928,27.86025843,-99999.0,'11111222,11111222,99999999' 
TABS,ioos:station:wmo:42048:1,2004-03-02T01:30:00Z,27.9396,-96.8429,2.0,223.5216823,29.33347746,-99999.0,'11111222,11111222,99999999' 
TABS,ioos:station:wmo:42048:1,2004-03-02T02:00:00Z,27.9396,-96.8429,2.0,224.759955,25.35,-99999.0,'11111222,11111222,99999999' 
TABS,ioos:station:wmo:42048:1,2004-03-02T02:30:00Z,27.9396,-96.8429,2.0,221.0495598,25.35343961,-99999.0,'11111222,11111222,99999999' 
TABS,ioos:station:wmo:42048:1,2004-03-02T03:00:00Z,27.9396,-96.8429,2.0,224.7616405,22.12556214,-99999.0,'11111222,11111222,99999999' 
TABS,ioos:station:wmo:42048:1,2004-03-02T03:30:00Z,27.9396,-96.8429,2.0,221.5990184,20.86102826,-99999.0,'11111222,11111222,99999999' 
TABS,ioos:station:wmo:42048:1,2004-03-02T04:00:00Z,27.9396,-96.8429,2.0,224.9822215,23.20017457,-99999.0,'11111222,11111222,99999999' 
TABS,ioos:station:wmo:42048:1,2004-03-02T04:30:00Z,27.9396,-96.8429,2.0,228.4529925,26.29555095,-99999.0,'11111222,11111222,99999999' 
TABS,ioos:station:wmo:42048:1,2004-03-02T05:00:00Z,27.9396,-96.8429,2.0,225.1456395,24.98216364,-99999.0,'11111222,11111222,99999999' 
TABS,ioos:station:wmo:42048:1,2004-03-02T05:30:00Z,27.9396,-96.8429,2.0,226.9718956,20.54655202,-99999.0,'11111222,11111222,99999999' 
TABS,ioos:station:wmo:42048:1,2004-03-02T06:30:00Z,27.9396,-96.8429,2.0,224.1313426,20.9964116,-99999.0,'11111222,11111222,99999999' 
TABS,ioos:station:wmo:42048:1,2004-03-02T07:00:00Z,27.9396,-96.8429,2.0,217.7028882,18.42794888,-99999.0,'11111222,11111222,99999999' 
TABS,ioos:station:wmo:42048:1,2004-03-02T07:30:00Z,27.9396,-96.8429,2.0,215.0405353,22.11926988,-99999.0,'11111222,11111222,99999999' 
TABS,ioos:station:wmo:42048:1,2004-03-02T08:00:00Z,27.9396,-96.8429,2.0,206.8628802,21.48890411,-99999.0,'11111222,11111222,99999999' 
TABS,ioos:station:wmo:42048:1,2004-03-02T08:30:00Z,27.9396,-96.8429,2.0,211.3849597,21.4481934,-99999.0,'11111222,11111222,99999999' 
TABS,ioos:station:wmo:42048:1,2004-03-02T09:00:00Z,27.9396,-96.8429,2.0,202.8580799,24.7648299,-99999.0,'11111222,11111222,99999999' 
TABS,ioos:station:wmo:42048:1,2004-03-02T09:30:00Z,27.9396,-96.8429,2.0,198.9280035,25.71027032,-99999.0,'11111222,11111222,99999999' 
TABS,ioos:station:wmo:42048:1,2004-03-02T10:00:00Z,27.9396,-96.8429,2.0,195.3899239,26.79068868,-99999.0,'11111222,11111222,99999999' 
TABS,ioos:station:wmo:42048:1,2004-03-02T10:30:00Z,27.9396,-96.8429,2.0,191.4952779,27.24655758,-99999.0,'11111222,11111222,99999999' 
TABS,ioos:station:wmo:42048:1,2004-03-02T11:00:00Z,27.9396,-96.8429,2.0,192.1841184,27.24370386,-99999.0,'11111222,11111222,99999999' 
TABS,ioos:station:wmo:42048:1,2004-03-02T11:30:00Z,27.9396,-96.8429,2.0,198.6081427,28.20448369,-99999.0,'11111222,11111222,99999999' 
TABS,ioos:station:wmo:42048:1,2004-03-02T12:00:00Z,27.9396,-96.8429,2.0,210.3220294,28.79984722,-99999.0,'11111222,11111222,99999999' 
TABS,ioos:station:wmo:42048:1,2004-03-02T12:30:00Z,27.9396,-96.8429,2.0,210.3661817,29.61255477,-99999.0,'11111222,11111222,99999999' 
TABS,ioos:station:wmo:42048:1,2004-03-02T13:00:00Z,27.9396,-96.8429,2.0,218.9629739,28.30689139,-99999.0,'11111222,11111222,99999999' 
TABS,ioos:station:wmo:42048:1,2004-03-02T13:30:00Z,27.9396,-96.8429,2.0,215.0741924,27.32141285,-99999.0,'11111222,11111222,99999999' 
TABS,ioos:station:wmo:42048:1,2004-03-02T14:00:00Z,27.9396,-96.8429,2.0,222.0778673,29.96371139,-99999.0,'11111222,11111222,99999999' 
TABS,ioos:station:wmo:42048:1,2004-03-02T14:30:00Z,27.9396,-96.8429,2.0,217.5946334,30.5044423,-99999.0,'11111222,11111222,99999999' 
TABS,ioos:station:wmo:42048:1,2004-03-02T15:00:00Z,27.9396,-96.8429,2.0,222.6651833,29.51084546,-99999.0,'11111222,11111222,99999999' 
TABS,ioos:station:wmo:42048:1,2004-03-02T15:30:00Z,27.9396,-96.8429,2.0,226.1175736,29.35759016,-99999.0,'11111222,11111222,99999999' 
TABS,ioos:station:wmo:42048:1,2004-03-02T16:00:00Z,27.9396,-96.8429,2.0,223.2219647,28.03613561,-99999.0,'11111222,11111222,99999999' 
TABS,ioos:station:wmo:42048:1,2004-03-02T16:30:00Z,27.9396,-96.8429,2.0,221.1856184,30.40221702,-99999.0,'11111222,11111222,99999999' 
TABS,ioos:station:wmo:42048:1,2004-03-02T17:00:00Z,27.9396,-96.8429,2.0,224.0349157,28.55702015,-99999.0,'11111222,11111222,99999999' 
TABS,ioos:station:wmo:42048:1,2004-03-02T17:30:00Z,27.9396,-96.8429,2.0,220.4899274,30.21630024,-99999.0,'11111222,11111222,99999999' 
TABS,ioos:station:wmo:42048:1,2004-03-02T18:00:00Z,27.9396,-96.8429,2.0,225.4410904,27.5355552,-99999.0,'11111222,11111222,99999999' 
TABS,ioos:station:wmo:42048:1,2004-03-02T18:30:00Z,27.9396,-96.8429,2.0,225.7699,27.35336177,-99999.0,'11111222,11111222,99999999' 
TABS,ioos:station:wmo:42048:1,2004-03-02T19:00:00Z,27.9396,-96.8429,2.0,227.2946557,29.66571085,-99999.0,'11111222,11111222,99999999' 
TABS,ioos:station:wmo:42048:1,2004-03-02T19:30:00Z,27.9396,-96.8429,2.0,225.9641664,31.50607084,-99999.0,'11111222,11111222,99999999' 
TABS,ioos:station:wmo:42048:1,2004-03-02T20:00:00Z,27.9396,-96.8429,2.0,224.1086071,30.91844757,-99999.0,'11111222,11111222,99999999' 
TABS,ioos:station:wmo:42048:1,2004-03-02T20:30:00Z,27.9396,-96.8429,2.0,223.1366353,30.44997209,-99999.0,'11111222,11111222,99999999' 
TABS,ioos:station:wmo:42048:1,2004-03-02T21:00:00Z,27.9396,-96.8429,2.0,223.7632796,34.40875615,-99999.0,'11111222,11111222,99999999' 
TABS,ioos:station:wmo:42048:1,2004-03-02T21:30:00Z,27.9396,-96.8429,2.0,222.3981123,37.38791516,-99999.0,'11111222,11111222,99999999' 
TABS,ioos:station:wmo:42048:1,2004-03-02T22:00:00Z,27.9396,-96.8429,2.0,226.5135211,38.27490692,-99999.0,'11111222,11111222,99999999' 
TABS,ioos:station:wmo:42048:1,2004-03-02T22:30:00Z,27.9396,-96.8429,2.0,222.4866894,39.02740063,-99999.0,'11111222,11111222,99999999' 
TABS,ioos:station:wmo:42048:1,2004-03-02T23:00:00Z,27.9396,-96.8429,2.0,220.0755109,40.44730028,-99999.0,'11111222,11111222,99999999' 
TABS,ioos:station:wmo:42048:1,2004-03-02T23:30:00Z,27.9396,-96.8429,2.0,221.9061583,41.66688133,-99999.0,'11111222,11111222,99999999' 
TABS,ioos:station:wmo:42048:1,2004-03-03T00:00:00Z,27.9396,-96.8429,2.0,220.2782821,40.63388857,-99999.0,'11111222,11111222,99999999' 
TABS,ioos:station:wmo:42048:1,2004-03-03T00:30:00Z,27.9396,-96.8429,2.0,222.3691297,44.67966204,-99999.0,'11111222,11111222,99999999' 
TABS,ioos:station:wmo:42048:1,2004-03-03T01:00:00Z,27.9396,-96.8429,2.0,222.1527721,44.41870102,-99999.0,'11111222,11111222,99999999' 
TABS,ioos:station:wmo:42048:1,2004-03-03T01:30:00Z,27.9396,-96.8429,2.0,219.4773717,49.89166764,-99999.0,'11111222,11111222,99999999' 
TABS,ioos:station:wmo:42048:1,2004-03-03T02:00:00Z,27.9396,-96.8429,2.0,214.4844923,45.99184384,-99999.0,'11111222,11111222,99999999' 
TABS,ioos:station:wmo:42048:1,2004-03-03T03:00:00Z,27.9396,-96.8429,2.0,219.5506148,46.09245166,-99999.0,'11111222,11111222,99999999' 
TABS,ioos:station:wmo:42048:1,2004-03-03T03:30:00Z,27.9396,-96.8429,2.0,223.2006049,44.14522398,-99999.0,'11111222,11111222,99999999' 
TABS,ioos:station:wmo:42048:1,2004-03-03T04:00:00Z,27.9396,-96.8429,2.0,226.6995957,44.57441531,-99999.0,'11111222,11111222,99999999' 
TABS,ioos:station:wmo:42048:1,2004-03-03T04:30:00Z,27.9396,-96.8429,2.0,229.2345977,50.84545309,-99999.0,'11111222,11111222,99999999' 
TABS,ioos:station:wmo:42048:1,2004-03-03T05:00:00Z,27.9396,-96.8429,2.0,224.7639658,51.56266285,-99999.0,'11111222,11111222,99999999' 
TABS,ioos:station:wmo:42048:1,2004-03-03T05:30:00Z,27.9396,-96.8429,2.0,225.5215938,55.89203879,-99999.0,'11111222,11111222,99999999' 
TABS,ioos:station:wmo:42048:1,2004-03-03T06:00:00Z,27.9396,-96.8429,2.0,225.0500256,56.335219,-99999.0,'11111222,11111222,99999999' 
TABS,ioos:station:wmo:42048:1,2004-03-03T06:30:00Z,27.9396,-96.8429,2.0,224.225876,53.40557462,-99999.0,'11111222,11111222,99999999' 
TABS,ioos:station:wmo:42048:1,2004-03-03T07:00:00Z,27.9396,-96.8429,2.0,224.9129564,51.38550866,-99999.0,'11111222,11111222,99999999' 
TABS,ioos:station:wmo:42048:1,2004-03-03T07:30:00Z,27.9396,-96.8429,2.0,224.8263958,51.43518251,-99999.0,'11111222,11111222,99999999' 
TABS,ioos:station:wmo:42048:1,2004-03-03T08:00:00Z,27.9396,-96.8429,2.0,226.1422673,53.54570104,-99999.0,'11111222,11111222,99999999' 
TABS,ioos:station:wmo:42048:1,2004-03-03T08:30:00Z,27.9396,-96.8429,2.0,226.6390948,48.93767874,-99999.0,'11111222,11111222,99999999' 
TABS,ioos:station:wmo:42048:1,2004-03-03T09:30:00Z,27.9396,-96.8429,2.0,219.8779385,47.44538439,-99999.0,'11111222,11111222,99999999' 
TABS,ioos:station:wmo:42048:1,2004-03-03T10:00:00Z,27.9396,-96.8429,2.0,225.0740835,49.00961232,-99999.0,'11111222,11111222,99999999' 
TABS,ioos:station:wmo:42048:1,2004-03-03T10:30:00Z,27.9396,-96.8429,2.0,221.0061248,49.54707055,-99999.0,'11111222,11111222,99999999' 
TABS,ioos:station:wmo:42048:1,2004-03-03T11:30:00Z,27.9396,-96.8429,2.0,222.7549388,48.02111619,-99999.0,'11111222,11111222,99999999' 
TABS,ioos:station:wmo:42048:1,2004-03-03T12:00:00Z,27.9396,-96.8429,2.0,224.3533333,48.89247386,-99999.0,'11111222,11111222,99999999' 
TABS,ioos:station:wmo:42048:1,2004-03-03T12:30:00Z,27.9396,-96.8429,2.0,220.7257482,47.82026349,-99999.0,'11111222,11111222,99999999' 
TABS,ioos:station:wmo:42048:1,2004-03-03T13:00:00Z,27.9396,-96.8429,2.0,224.1986424,46.53217382,-99999.0,'11111222,11111222,99999999' 
TABS,ioos:station:wmo:42048:1,2004-03-03T13:30:00Z,27.9396,-96.8429,2.0,218.0572884,46.50799179,-99999.0,'11111222,11111222,99999999' 
TABS,ioos:station:wmo:42048:1,2004-03-03T14:00:00Z,27.9396,-96.8429,2.0,218.7302795,48.04533276,-99999.0,'11111222,11111222,99999999' 
TABS,ioos:station:wmo:42048:1,2004-03-03T14:30:00Z,27.9396,-96.8429,2.0,217.3273335,48.56754987,-99999.0,'11111222,11111222,99999999' 
TABS,ioos:station:wmo:42048:1,2004-03-03T15:00:00Z,27.9396,-96.8429,2.0,219.641791,48.46471706,-99999.0,'11111222,11111222,99999999' 
TABS,ioos:station:wmo:42048:1,2004-03-03T15:30:00Z,27.9396,-96.8429,2.0,219.5719074,47.46878659,-99999.0,'11111222,11111222,99999999' 
TABS,ioos:station:wmo:42048:1,2004-03-03T16:00:00Z,27.9396,-96.8429,2.0,213.9350667,46.64516695,-99999.0,'11111222,11111222,99999999' 
TABS,ioos:station:wmo:42048:1,2004-03-03T16:30:00Z,27.9396,-96.8429,2.0,216.9812641,46.1800877,-99999.0,'11111222,11111222,99999999' 
TABS,ioos:station:wmo:42048:1,2004-03-03T17:00:00Z,27.9396,-96.8429,2.0,213.4959304,47.54639944,-99999.0,'11111222,11111222,99999999' 
TABS,ioos:station:wmo:42048:1,2004-03-03T17:30:00Z,27.9396,-96.8429,2.0,211.0582697,45.60839616,-99999.0,'11111222,11111222,99999999' 
TABS,ioos:station:wmo:42048:1,2004-03-03T18:00:00Z,27.9396,-96.8429,2.0,210.92605,44.63594628,-99999.0,'11111222,11111222,99999999' 
TABS,ioos:station:wmo:42048:1,2004-03-03T18:30:00Z,27.9396,-96.8429,2.0,211.2114148,37.64943691,-99999.0,'11111222,11111222,99999999' 
TABS,ioos:station:wmo:42048:1,2004-03-03T19:00:00Z,27.9396,-96.8429,2.0,219.5645728,36.87878794,-99999.0,'11111222,11111222,99999999' 
TABS,ioos:station:wmo:42048:1,2004-03-03T19:30:00Z,27.9396,-96.8429,2.0,222.4038486,41.06139915,-99999.0,'11111222,11111222,99999999' 
TABS,ioos:station:wmo:42048:1,2004-03-03T20:30:00Z,27.9396,-96.8429,2.0,218.9955998,56.17666864,-99999.0,'11111222,11111222,99999999' 
TABS,ioos:station:wmo:42048:1,2004-03-03T21:00:00Z,27.9396,-96.8429,2.0,216.3445742,57.18440084,-99999.0,'11111222,11111222,99999999' 
TABS,ioos:station:wmo:42048:1,2004-03-03T21:30:00Z,27.9396,-96.8429,2.0,209.8525053,48.73705469,-99999.0,'11111222,11111222,99999999' 
TABS,ioos:station:wmo:42048:1,2004-03-03T22:00:00Z,27.9396,-96.8429,2.0,218.7661148,45.32482763,-99999.0,'11111222,11111222,99999999' 
TABS,ioos:station:wmo:42048:1,2004-03-03T23:00:00Z,27.9396,-96.8429,2.0,214.9464182,48.68942596,-99999.0,'11111222,11111222,99999999' 
TABS,ioos:station:wmo:42048:1,2004-03-03T23:30:00Z,27.9396,-96.8429,2.0,217.1517882,41.01449744,-99999.0,'11111222,11111222,99999999' 
TABS,ioos:station:wmo:42048:1,2004-03-04T00:00:00Z,27.9396,-96.8429,2.0,218.1056047,36.99460772,-99999.0,'11111222,11111222,99999999' 
TABS,ioos:station:wmo:42048:1,2004-03-04T00:30:00Z,27.9396,-96.8429,2.0,226.9786011,35.01559795,-99999.0,'11111222,11111222,99999999' 
TABS,ioos:station:wmo:42048:1,2004-03-04T01:00:00Z,27.9396,-96.8429,2.0,233.6914375,32.8475783,-99999.0,'11111222,11111222,99999999' 
TABS,ioos:station:wmo:42048:1,2004-03-04T01:30:00Z,27.9396,-96.8429,2.0,238.2684191,33.67333812,-99999.0,'11111222,11111222,99999999' 
TABS,ioos:station:wmo:42048:1,2004-03-04T02:00:00Z,27.9396,-96.8429,2.0,263.7487073,39.67588688,-99999.0,'11111222,11111222,99999999' 
TABS,ioos:station:wmo:42048:1,2004-03-04T02:30:00Z,27.9396,-96.8429,2.0,260.3874868,44.01797928,-99999.0,'11111222,11111222,99999999' 
TABS,ioos:station:wmo:42048:1,2004-03-04T03:00:00Z,27.9396,-96.8429,2.0,243.3348877,38.5498703,-99999.0,'11111222,11111222,99999999' 
TABS,ioos:station:wmo:42048:1,2004-03-04T03:30:00Z,27.9396,-96.8429,2.0,238.0521743,37.75926376,-99999.0,'11111222,11111222,99999999' 
TABS,ioos:station:wmo:42048:1,2004-03-04T04:00:00Z,27.9396,-96.8429,2.0,235.5272452,35.14075981,-99999.0,'11111222,11111222,99999999' 
TABS,ioos:station:wmo:42048:1,2004-03-04T04:30:00Z,27.9396,-96.8429,2.0,231.17609,36.60727933,-99999.0,'11111222,11111222,99999999' 
TABS,ioos:station:wmo:42048:1,2004-03-04T05:00:00Z,27.9396,-96.8429,2.0,225.5996761,35.78863646,-99999.0,'11111222,11111222,99999999' 
TABS,ioos:station:wmo:42048:1,2004-03-04T05:30:00Z,27.9396,-96.8429,2.0,232.0202214,35.1165844,-99999.0,'11111222,11111222,99999999' 
TABS,ioos:station:wmo:42048:1,2004-03-04T06:00:00Z,27.9396,-96.8429,2.0,226.8926191,29.96939773,-99999.0,'11111222,11111222,99999999' 
TABS,ioos:station:wmo:42048:1,2004-03-04T06:30:00Z,27.9396,-96.8429,2.0,243.6396623,28.73812972,-99999.0,'11111222,11111222,99999999' 
TABS,ioos:station:wmo:42048:1,2004-03-04T07:00:00Z,27.9396,-96.8429,2.0,229.8284619,27.88828069,-99999.0,'11111222,11111222,99999999' 
TABS,ioos:station:wmo:42048:1,2004-03-04T07:30:00Z,27.9396,-96.8429,2.0,234.4681415,32.4528535,-99999.0,'11111222,11111222,99999999' 
TABS,ioos:station:wmo:42048:1,2004-03-04T08:00:00Z,27.9396,-96.8429,2.0,228.5457288,33.38278598,-99999.0,'11111222,11111222,99999999' 
TABS,ioos:station:wmo:42048:1,2004-03-04T08:30:00Z,27.9396,-96.8429,2.0,221.3762436,36.4747721,-99999.0,'11111222,11111222,99999999' 
TABS,ioos:station:wmo:42048:1,2004-03-04T09:00:00Z,27.9396,-96.8429,2.0,221.5711436,41.38324782,-99999.0,'11111222,11111222,99999999' 
TABS,ioos:station:wmo:42048:1,2004-03-04T09:30:00Z,27.9396,-96.8429,2.0,215.5929081,39.58582701,-99999.0,'11111222,11111222,99999999' 
TABS,ioos:station:wmo:42048:1,2004-03-04T10:00:00Z,27.9396,-96.8429,2.0,221.1893069,43.83853328,-99999.0,'11111222,11111222,99999999' 
TABS,ioos:station:wmo:42048:1,2004-03-04T10:30:00Z,27.9396,-96.8429,2.0,215.2708948,46.23799844,-99999.0,'11111222,11111222,99999999' 
TABS,ioos:station:wmo:42048:1,2004-03-04T11:00:00Z,27.9396,-96.8429,2.0,211.0207161,48.06421746,-99999.0,'11111222,11111222,99999999' 
TABS,ioos:station:wmo:42048:1,2004-03-04T11:30:00Z,27.9396,-96.8429,2.0,217.9587023,56.82026487,-99999.0,'11111222,11111222,99999999' 
TABS,ioos:station:wmo:42048:1,2004-03-04T12:00:00Z,27.9396,-96.8429,2.0,213.3856488,54.86339581,-99999.0,'11111222,11111222,99999999' 
TABS,ioos:station:wmo:42048:1,2004-03-04T12:30:00Z,27.9396,-96.8429,2.0,214.5537255,49.29626355,-99999.0,'11111222,11111222,99999999' 
TABS,ioos:station:wmo:42048:1,2004-03-04T13:00:00Z,27.9396,-96.8429,2.0,211.9863321,51.78195921,-99999.0,'11111222,11111222,99999999' 
TABS,ioos:station:wmo:42048:1,2004-03-04T13:30:00Z,27.9396,-96.8429,2.0,216.0320219,59.6523738,-99999.0,'11111222,11111222,99999999' 
TABS,ioos:station:wmo:42048:1,2004-03-04T14:00:00Z,27.9396,-96.8429,2.0,216.9952915,59.26014259,-99999.0,'11111222,11111222,99999999' 
TABS,ioos:station:wmo:42048:1,2004-03-04T14:30:00Z,27.9396,-96.8429,2.0,229.7497797,44.74383309,-99999.0,'11111222,11111222,99999999' 
TABS,ioos:station:wmo:42048:1,2004-03-04T15:30:00Z,27.9396,-96.8429,2.0,246.9879634,43.87102575,-99999.0,'11111222,11111222,99999999' 
TABS,ioos:station:wmo:42048:1,2004-03-04T16:30:00Z,27.9396,-96.8429,2.0,248.4053605,42.63221435,-99999.0,'11111222,11111222,99999999' 
TABS,ioos:station:wmo:42048:1,2004-03-04T17:00:00Z,27.9396,-96.8429,2.0,245.4328007,44.37715741,-99999.0,'11111222,11111222,99999999' 
TABS,ioos:station:wmo:42048:1,2004-03-04T17:30:00Z,27.9396,-96.8429,2.0,238.7853847,46.67721607,-99999.0,'11111222,11111222,99999999' 
TABS,ioos:station:wmo:42048:1,2004-03-04T18:00:00Z,27.9396,-96.8429,2.0,238.8218513,43.15277511,-99999.0,'11111222,11111222,99999999' 
TABS,ioos:station:wmo:42048:1,2004-03-04T18:30:00Z,27.9396,-96.8429,2.0,234.4586908,40.44487854,-99999.0,'11111222,11111222,99999999' 
TABS,ioos:station:wmo:42048:1,2004-03-04T19:00:00Z,27.9396,-96.8429,2.0,217.4560585,35.17184243,-99999.0,'11111222,11111222,99999999' 
TABS,ioos:station:wmo:42048:1,2004-03-04T19:30:00Z,27.9396,-96.8429,2.0,209.2675301,29.49524199,-99999.0,'11111222,11111222,99999999' 
TABS,ioos:station:wmo:42048:1,2004-03-04T20:00:00Z,27.9396,-96.8429,2.0,219.6814761,33.18595637,-99999.0,'11111222,11111222,99999999' 
TABS,ioos:station:wmo:42048:1,2004-03-04T20:30:00Z,27.9396,-96.8429,2.0,249.3655193,28.34856257,-99999.0,'11111222,11111222,99999999' 
TABS,ioos:station:wmo:42048:1,2004-03-04T21:00:00Z,27.9396,-96.8429,2.0,249.5494927,31.0253203,-99999.0,'11111222,11111222,99999999' 
TABS,ioos:station:wmo:42048:1,2004-03-04T21:30:00Z,27.9396,-96.8429,2.0,235.3777747,29.67483783,-99999.0,'11111222,11111222,99999999' 
TABS,ioos:station:wmo:42048:1,2004-03-04T22:30:00Z,27.9396,-96.8429,2.0,227.4585421,27.52472525,-99999.0,'11111222,11111222,99999999' 
TABS,ioos:station:wmo:42048:1,2004-03-04T23:00:00Z,27.9396,-96.8429,2.0,223.9135091,29.09560104,-99999.0,'11111222,11111222,99999999' 